Location: ??
(35.4032°N, 139.3073°E)
Time: 12:09:35
(UTC+00:00)

Iridium 51 - Pass Details

Date: 13 April 2024
Orbit: 434 x 634 km, 86.4° (Epoch: 26 May)

Event Time Altitude Azimuth Distance (km) Brightness Sun altitude
Rises 17:16:16 0° 101° (E) 2,445 8.1 -32.4°
Enters shadow 18:26:57 -48° 182° (S) 10,232 10.7 -20.8°
Maximum altitude 18:53:21 89° 271° (W) 448 3.8 -16.0°
